| time (UTC) | temp C | wind direction | speed KPH | gust KPH | rain 1hr cm | rain 24hr cm | rain mn cm | humidity % | barometer mb |
| 20260505173455 | 21 | 220 | 17.7 | 20.9 | 0.00 | 0.00 | 0.00 | 64 | 1006.8 |
| 20260505172953 | 22 | 163 | 1.6 | 1.6 | 0.00 | 0.00 | 0.00 | 55 | 1006.6 |
| 20260505172451 | 23 | 269 | 4.8 | 8.0 | 0.00 | 0.00 | 0.00 | 48 | 1006.4 |
| 20260505171951 | 23 | 157 | 1.6 | 3.2 | 0.00 | 0.00 | 0.00 | 48 | 1006.6 |
| 20260505171447 | 23 | 222 | 9.7 | 14.5 | 0.00 | 0.00 | 0.00 | 48 | 1006.6 |
| 20260505170944 | 23 | 180 | 3.2 | 3.2 | 0.00 | 0.00 | 0.00 | 49 | 1006.4 |
| 20260505170441 | 23 | 167 | 8.0 | 11.3 | 0.00 | 0.00 | 0.00 | 46 | 1006.3 |
| 20260505165936 | 24 | 210 | 9.7 | 11.3 | 0.00 | 0.00 | 0.00 | 46 | 1006.3 |
| 20260505165432 | 24 | 262 | 4.8 | 9.7 | 0.00 | 0.00 | 0.00 | 45 | 1005.9 |
| 20260505164922 | 24 | 178 | 4.8 | 4.8 | 0.00 | 0.00 | 0.00 | 45 | 1005.9 |
| 20260505164419 | 24 | 206 | 3.2 | 3.2 | 0.00 | 0.00 | 0.00 | 47 | 1006.1 |
| 20260505163917 | 24 | 184 | 3.2 | 3.2 | 0.00 | 0.00 | 0.00 | 43 | 1006.2 |
| 20260505163416 | 24 | 299 | 6.4 | 8.0 | 0.00 | 0.00 | 0.00 | 43 | 1006.1 |
| 20260505162914 | 25 | 194 | 8.0 | 9.7 | 0.00 | 0.00 | 0.00 | 45 | 1006.1 |
| 20260505162410 | 24 | 230 | 8.0 | 9.7 | 0.00 | 0.00 | 0.00 | 45 | 1006.3 |
| 20260505161907 | 23 | 235 | 11.3 | 14.5 | 0.00 | 0.00 | 0.00 | 45 | 1006.6 |
| 20260505161404 | 23 | 212 | 9.7 | 11.3 | 0.00 | 0.00 | 0.00 | 46 | 1006.4 |
| 20260505160901 | 23 | 191 | 4.8 | 8.0 | 0.00 | 0.00 | 0.00 | 46 | 1006.4 |
| 20260505160359 | 23 | 321 | 8.0 | 11.3 | 0.00 | 0.00 | 0.00 | 46 | 1006.7 |
| 20260505153338 | 25 | 226 | 12.9 | 14.5 | 0.00 | 0.00 | 0.00 | 45 | 1006.8 |
| 20260505152834 | 23 | 164 | 1.6 | 3.2 | 0.00 | 0.00 | 0.00 | 46 | 1006.8 |
| 20260505152331 | 24 | 171 | 8.0 | 14.5 | 0.00 | 0.00 | 0.00 | 45 | 1006.7 |
| 20260505151826 | 23 | 179 | 4.8 | 4.8 | 0.00 | 0.00 | 0.00 | 49 | 1007.0 |
| 20260505151323 | 23 | 224 | 17.7 | 22.5 | 0.00 | 0.00 | 0.00 | 47 | 1006.7 |
| 20260505150820 | 23 | 141 | 20.9 | 27.4 | 0.00 | 0.00 | 0.00 | 45 | 1006.3 |
| 20260505150317 | 23 | 191 | 6.4 | 8.0 | 0.00 | 0.00 | 0.00 | 47 | 1006.4 |
| 20260505140241 | 21 | 184 | 8.0 | 9.7 | 0.00 | 0.00 | 0.00 | 54 | 1007.3 |
| 20260505130205 | 18 | 269 | 4.8 | 11.3 | 0.00 | 0.00 | 0.00 | 59 | 1007.7 |
| 20260505124655 | 17 | 158 | 0.0 | 1.6 | 0.00 | 0.00 | 0.00 | 64 | 1007.9 |
| 20260505124151 | 17 | 162 | 3.2 | 4.8 | 0.00 | 0.00 | 0.00 | 64 | 1008.1 |
| 20260505123648 | 17 | 204 | 9.7 | 11.3 | 0.00 | 0.00 | 0.00 | 63 | 1008.1 |
| 20260505123144 | 17 | 183 | 8.0 | 11.3 | 0.00 | 0.00 | 0.00 | 63 | 1008.2 |
| 20260505122640 | 17 | 219 | 4.8 | 4.8 | 0.00 | 0.00 | 0.00 | 64 | 1008.2 |
| 20260505122138 | 17 | 187 | 0.0 | 1.6 | 0.00 | 0.00 | 0.00 | 63 | 1008.1 |
| 20260505121628 | 17 | 230 | 6.4 | 8.0 | 0.00 | 0.00 | 0.00 | 62 | 1008.3 |
| 20260505121120 | 17 | 211 | 1.6 | 3.2 | 0.00 | 0.00 | 0.00 | 63 | 1008.0 |
| 20260505120615 | 17 | 193 | 3.2 | 3.2 | 0.00 | 0.00 | 0.00 | 63 | 1007.9 |
| 20260505120111 | 17 | 131 | 4.8 | 4.8 | 0.00 | 0.00 | 0.00 | 62 | 1007.8 |
| 20260505115606 | 17 | 171 | 6.4 | 9.7 | 0.00 | 0.00 | 0.00 | 62 | 1007.8 |
| 20260505115104 | 17 | 186 | 1.6 | 1.6 | 0.00 | 0.00 | 0.00 | 63 | 1008.0 |
| 20260505114601 | 16 | 168 | 0.0 | 1.6 | 0.00 | 0.00 | 0.00 | 63 | 1008.0 |
| 20260505114057 | 16 | 148 | 4.8 | 8.0 | 0.00 | 0.00 | 0.00 | 63 | 1007.9 |
| 20260505113554 | 16 | 176 | 4.8 | 4.8 | 0.00 | 0.00 | 0.00 | 62 | 1007.9 |
| 20260505113050 | 16 | 111 | 4.8 | 8.0 | 0.00 | 0.00 | 0.00 | 63 | 1007.8 |
| 20260505112546 | 16 | 163 | 8.0 | 11.3 | 0.00 | 0.00 | 0.00 | 63 | 1007.9 |
| 20260505112044 | 16 | 140 | 6.4 | 9.7 | 0.00 | 0.00 | 0.00 | 64 | 1008.0 |
| 20260505111538 | 16 | 138 | 4.8 | 8.0 | 0.00 | 0.00 | 0.00 | 64 | 1008.0 |
| 20260505111035 | 16 | 167 | 8.0 | 9.7 | 0.00 | 0.00 | 0.00 | 65 | 1008.0 |
| 20260505110532 | 16 | 108 | 8.0 | 16.1 | 0.00 | 0.00 | 0.00 | 65 | 1008.1 |
| 20260505102004 | 16 | 189 | 4.8 | 8.0 | 0.00 | 0.00 | 0.00 | 60 | 1007.6 |
| 20260505101503 | 16 | 232 | 3.2 | 3.2 | 0.00 | 0.00 | 0.00 | 60 | 1007.6 |
| 20260505100958 | 16 | 195 | 1.6 | 1.6 | 0.00 | 0.00 | 0.00 | 60 | 1007.5 |
| 20260505100455 | 16 | 204 | 4.8 | 8.0 | 0.00 | 0.00 | 0.00 | 60 | 1007.6 |
| 20260505095952 | 16 | 232 | 4.8 | 4.8 | 0.00 | 0.00 | 0.00 | 60 | 1007.5 |
| 20260505095448 | 16 | 194 | 1.6 | 1.6 | 0.00 | 0.00 | 0.00 | 59 | 1007.3 |
| 20260505094944 | 16 | 191 | 1.6 | 1.6 | 0.00 | 0.00 | 0.00 | 59 | 1007.2 |
| 20260505094441 | 16 | 184 | 0.0 | 1.6 | 0.00 | 0.00 | 0.00 | 60 | 1007.1 |
| 20260505093937 | 16 | 151 | 1.6 | 1.6 | 0.00 | 0.00 | 0.00 | 59 | 1007.1 |
| 20260505093434 | 16 | 180 | 1.6 | 1.6 | 0.00 | 0.00 | 0.00 | 60 | 1007.1 |
| 20260505092932 | 16 | 191 | 3.2 | 4.8 | 0.00 | 0.00 | 0.00 | 59 | 1006.9 |
| 20260505092429 | 16 | 201 | 3.2 | 3.2 | 0.00 | 0.00 | 0.00 | 59 | 1006.9 |
| 20260505091926 | 16 | 199 | 6.4 | 8.0 | 0.00 | 0.00 | 0.00 | 58 | 1007.1 |
| 20260505091424 | 16 | 177 | 1.6 | 3.2 | 0.00 | 0.00 | 0.00 | 59 | 1007.1 |
| 20260505090922 | 16 | 203 | 3.2 | 4.8 | 0.00 | 0.00 | 0.00 | 59 | 1006.9 |
| 20260505090420 | 16 | 199 | 3.2 | 3.2 | 0.00 | 0.00 | 0.00 | 59 | 1006.9 |
| 20260505085917 | 15 | 176 | 0.0 | 1.6 | 0.00 | 0.00 | 0.00 | 60 | 1006.9 |
| 20260505085415 | 15 | 174 | 0.0 | 1.6 | 0.00 | 0.00 | 0.00 | 60 | 1007.1 |
| 20260505084913 | 15 | 163 | 3.2 | 3.2 | 0.00 | 0.00 | 0.00 | 61 | 1006.9 |
| 20260505084411 | 15 | 156 | 0.0 | 1.6 | 0.00 | 0.00 | 0.00 | 60 | 1006.8 |
| 20260505083909 | 15 | 140 | 0.0 | 0.0 | 0.00 | 0.00 | 0.00 | 60 | 1006.6 |
| 20260505083406 | 15 | 177 | 4.8 | 4.8 | 0.00 | 0.00 | 0.00 | 59 | 1006.8 |
| 20260505082902 | 15 | 124 | 0.0 | 3.2 | 0.00 | 0.00 | 0.00 | 59 | 1006.7 |
| 20260505082357 | 15 | 126 | 3.2 | 3.2 | 0.00 | 0.00 | 0.00 | 59 | 1006.7 |
| 20260505081855 | 16 | 162 | 3.2 | 3.2 | 0.00 | 0.00 | 0.00 | 59 | 1006.8 |
| 20260505081351 | 16 | 120 | 4.8 | 4.8 | 0.00 | 0.00 | 0.00 | 58 | 1006.9 |
| 20260505080848 | 16 | 145 | 1.6 | 3.2 | 0.00 | 0.00 | 0.00 | 57 | 1006.9 |
| 20260505080344 | 16 | 170 | 3.2 | 3.2 | 0.00 | 0.00 | 0.00 | 57 | 1007.1 |
| 20260505075840 | 16 | 155 | 1.6 | 1.6 | 0.00 | 0.00 | 0.00 | 57 | 1006.8 |
| 20260505075337 | 16 | 124 | 4.8 | 4.8 | 0.00 | 0.00 | 0.00 | 57 | 1006.9 |
| 20260505074834 | 16 | 147 | 4.8 | 4.8 | 0.00 | 0.00 | 0.00 | 57 | 1007.0 |
| 20260505074331 | 16 | 164 | 3.2 | 3.2 | 0.00 | 0.00 | 0.00 | 56 | 1006.8 |
| 20260505073828 | 16 | 182 | 4.8 | 4.8 | 0.00 | 0.00 | 0.00 | 56 | 1006.9 |
| 20260505073326 | 16 | 153 | 3.2 | 4.8 | 0.00 | 0.00 | 0.00 | 56 | 1006.9 |
| 20260505072823 | 16 | 138 | 4.8 | 4.8 | 0.00 | 0.00 | 0.00 | 56 | 1007.0 |
| 20260505072319 | 16 | 154 | 1.6 | 1.6 | 0.00 | 0.00 | 0.00 | 56 | 1006.9 |
| 20260505071815 | 16 | 191 | 8.0 | 9.7 | 0.00 | 0.00 | 0.00 | 55 | 1007.0 |
| 20260505071312 | 16 | 164 | 0.0 | 0.0 | 0.00 | 0.00 | 0.00 | 57 | 1007.1 |
| 20260505070810 | 16 | 166 | 3.2 | 3.2 | 0.00 | 0.00 | 0.00 | 56 | 1007.0 |
| 20260505070306 | 16 | 156 | 1.6 | 1.6 | 0.00 | 0.00 | 0.00 | 57 | 1007.1 |
| 20260505065801 | 16 | 154 | 1.6 | 1.6 | 0.00 | 0.00 | 0.00 | 56 | 1006.9 |
| 20260505065258 | 16 | 154 | 0.0 | 0.0 | 0.00 | 0.00 | 0.00 | 57 | 1007.2 |
| 20260505064755 | 15 | 146 | 0.0 | 0.0 | 0.00 | 0.00 | 0.00 | 57 | 1007.2 |
| 20260505064252 | 15 | 172 | 0.0 | 1.6 | 0.00 | 0.00 | 0.00 | 57 | 1007.1 |
| 20260505063750 | 15 | 152 | 0.0 | 0.0 | 0.00 | 0.00 | 0.00 | 56 | 1007.2 |
| 20260505063247 | 15 | 153 | 1.6 | 1.6 | 0.00 | 0.00 | 0.00 | 57 | 1007.0 |
| 20260505062743 | 15 | 154 | 0.0 | 1.6 | 0.00 | 0.00 | 0.00 | 57 | 1007.0 |
| 20260505062241 | 15 | 194 | 6.4 | 9.7 | 0.00 | 0.00 | 0.00 | 56 | 1007.1 |
| 20260505061737 | 15 | 132 | 4.8 | 4.8 | 0.00 | 0.00 | 0.00 | 57 | 1007.0 |
| 20260505061235 | 15 | 115 | 1.6 | 3.2 | 0.00 | 0.00 | 0.00 | 58 | 1006.9 |
| 20260505060732 | 15 | 161 | 3.2 | 3.2 | 0.00 | 0.00 | 0.00 | 57 | 1007.1 |
| 20260505060230 | 15 | 148 | 1.6 | 3.2 | 0.00 | 0.00 | 0.00 | 57 | 1007.0 |
| 20260505055724 | 15 | 134 | 8.0 | 9.7 | 0.00 | 0.00 | 0.00 | 56 | 1006.9 |
| 20260505055221 | 15 | 125 | 4.8 | 8.0 | 0.00 | 0.00 | 0.00 | 56 | 1007.3 |
| 20260505054719 | 15 | 128 | 4.8 | 4.8 | 0.00 | 0.00 | 0.00 | 56 | 1007.1 |
| 20260505054216 | 15 | 128 | 3.2 | 3.2 | 0.00 | 0.00 | 0.00 | 56 | 1007.3 |
| 20260505053714 | 15 | 123 | 4.8 | 4.8 | 0.00 | 0.00 | 0.00 | 56 | 1006.9 |
| 20260505053210 | 16 | 126 | 6.4 | 8.0 | 0.00 | 0.00 | 0.00 | 55 | 1007.1 |
| 20260505052708 | 16 | 126 | 4.8 | 4.8 | 0.00 | 0.00 | 0.00 | 55 | 1007.0 |
| 20260505052204 | 16 | 137 | 4.8 | 8.0 | 0.00 | 0.00 | 0.00 | 54 | 1007.0 |
| 20260505051702 | 16 | 122 | 3.2 | 3.2 | 0.00 | 0.00 | 0.00 | 55 | 1007.3 |
| 20260505051200 | 16 | 122 | 4.8 | 4.8 | 0.00 | 0.00 | 0.00 | 54 | 1007.3 |
| 20260505050657 | 16 | 127 | 3.2 | 3.2 | 0.00 | 0.00 | 0.00 | 54 | 1007.2 |
| 20260505050155 | 16 | 133 | 4.8 | 8.0 | 0.00 | 0.00 | 0.00 | 53 | 1007.3 |
| 20260505041625 | 17 | 114 | 4.8 | 4.8 | 0.00 | 0.00 | 0.00 | 51 | 1007.0 |
| 20260505041123 | 17 | 158 | 3.2 | 3.2 | 0.00 | 0.00 | 0.00 | 51 | 1006.9 |
| 20260505040619 | 17 | 195 | 6.4 | 8.0 | 0.00 | 0.00 | 0.00 | 51 | 1007.1 |
| 20260505040117 | 17 | 188 | 11.3 | 12.9 | 0.00 | 0.00 | 0.00 | 51 | 1007.1 |
| 20260505035613 | 17 | 178 | 4.8 | 4.8 | 0.00 | 0.00 | 0.00 | 50 | 1007.1 |
| 20260505035109 | 17 | 140 | 4.8 | 4.8 | 0.00 | 0.00 | 0.00 | 50 | 1007.1 |
| 20260505034606 | 17 | 153 | 3.2 | 3.2 | 0.00 | 0.00 | 0.00 | 50 | 1007.1 |
| 20260505034103 | 17 | 146 | 4.8 | 8.0 | 0.00 | 0.00 | 0.00 | 50 | 1007.0 |
| 20260505033559 | 17 | 165 | 1.6 | 3.2 | 0.00 | 0.00 | 0.00 | 50 | 1007.2 |
| 20260505033058 | 17 | 194 | 4.8 | 8.0 | 0.00 | 0.00 | 0.00 | 49 | 1007.1 |
| 20260505032555 | 17 | 160 | 4.8 | 9.7 | 0.00 | 0.00 | 0.00 | 50 | 1006.9 |
| 20260505032051 | 17 | 163 | 3.2 | 3.2 | 0.00 | 0.00 | 0.00 | 50 | 1007.2 |
| 20260505031549 | 17 | 155 | 3.2 | 3.2 | 0.00 | 0.00 | 0.00 | 49 | 1007.2 |
| 20260505031045 | 17 | 180 | 1.6 | 1.6 | 0.00 | 0.00 | 0.00 | 49 | 1007.0 |
| 20260505030543 | 17 | 144 | 6.4 | 9.7 | 0.00 | 0.00 | 0.00 | 49 | 1007.1 |
| 20260505030038 | 17 | 203 | 6.4 | 9.7 | 0.00 | 0.00 | 0.00 | 48 | 1007.1 |
| 20260505025534 | 17 | 186 | 1.6 | 1.6 | 0.00 | 0.00 | 0.00 | 49 | 1007.1 |
| 20260505025033 | 17 | 140 | 0.0 | 1.6 | 0.00 | 0.00 | 0.00 | 49 | 1007.3 |
| 20260505024530 | 17 | 162 | 6.4 | 8.0 | 0.00 | 0.00 | 0.00 | 48 | 1007.4 |
| 20260505024027 | 17 | 157 | 1.6 | 1.6 | 0.00 | 0.00 | 0.00 | 48 | 1007.2 |
| 20260505023524 | 17 | 165 | 6.4 | 11.3 | 0.00 | 0.00 | 0.00 | 48 | 1007.1 |
| 20260505023022 | 17 | 154 | 3.2 | 3.2 | 0.00 | 0.00 | 0.00 | 48 | 1007.2 |
| 20260505022519 | 17 | 170 | 4.8 | 4.8 | 0.00 | 0.00 | 0.00 | 48 | 1007.5 |
| 20260505022016 | 17 | 173 | 8.0 | 9.7 | 0.00 | 0.00 | 0.00 | 47 | 1007.2 |
| 20260505021513 | 17 | 137 | 4.8 | 4.8 | 0.00 | 0.00 | 0.00 | 47 | 1007.0 |
| 20260505021009 | 17 | 170 | 6.4 | 9.7 | 0.00 | 0.00 | 0.00 | 47 | 1007.3 |
| 20260505020503 | 17 | 162 | 3.2 | 3.2 | 0.00 | 0.00 | 0.00 | 47 | 1007.2 |
| 20260505020000 | 17 | 97 | 4.8 | 9.7 | 0.00 | 0.00 | 0.00 | 47 | 1007.2 |
| 20260505015458 | 17 | 165 | 3.2 | 3.2 | 0.00 | 0.00 | 0.00 | 47 | 1007.2 |
| 20260505014955 | 17 | 164 | 0.0 | 1.6 | 0.00 | 0.00 | 0.00 | 47 | 1007.4 |
| 20260505014452 | 18 | 157 | 4.8 | 8.0 | 0.00 | 0.00 | 0.00 | 46 | 1007.2 |
| 20260505013949 | 17 | 140 | 3.2 | 3.2 | 0.00 | 0.00 | 0.00 | 46 | 1007.1 |
| 20260505013446 | 18 | 129 | 3.2 | 3.2 | 0.00 | 0.00 | 0.00 | 46 | 1007.0 |
| 20260505012943 | 18 | 152 | 4.8 | 4.8 | 0.00 | 0.00 | 0.00 | 45 | 1007.3 |
| 20260505012441 | 18 | 182 | 3.2 | 3.2 | 0.00 | 0.00 | 0.00 | 46 | 1007.0 |
| 20260505011938 | 18 | 137 | 4.8 | 4.8 | 0.00 | 0.00 | 0.00 | 45 | 1007.1 |
| 20260505011433 | 18 | 144 | 3.2 | 4.8 | 0.00 | 0.00 | 0.00 | 46 | 1007.2 |
| 20260505010930 | 18 | 121 | 4.8 | 4.8 | 0.00 | 0.00 | 0.00 | 45 | 1006.9 |
| 20260505010426 | 18 | 145 | 8.0 | 12.9 | 0.00 | 0.00 | 0.00 | 45 | 1006.9 |
| 20260505005922 | 18 | 108 | 3.2 | 3.2 | 0.00 | 0.00 | 0.00 | 45 | 1006.9 |
| 20260505005420 | 18 | 141 | 3.2 | 4.8 | 0.00 | 0.00 | 0.00 | 44 | 1006.7 |
| 20260505004917 | 18 | 172 | 6.4 | 9.7 | 0.00 | 0.00 | 0.00 | 44 | 1006.6 |
| 20260505004413 | 18 | 153 | 4.8 | 4.8 | 0.00 | 0.00 | 0.00 | 44 | 1006.9 |
| 20260505003910 | 18 | 117 | 4.8 | 4.8 | 0.00 | 0.00 | 0.00 | 44 | 1006.4 |
| 20260505003407 | 19 | 133 | 4.8 | 8.0 | 0.00 | 0.00 | 0.00 | 43 | 1006.7 |
| 20260505002904 | 19 | 191 | 8.0 | 11.3 | 0.00 | 0.00 | 0.00 | 42 | 1006.7 |
| 20260505002400 | 19 | 161 | 4.8 | 4.8 | 0.00 | 0.00 | 0.00 | 43 | 1006.4 |
| 20260505001859 | 19 | 177 | 8.0 | 11.3 | 0.00 | 0.00 | 0.00 | 42 | 1006.3 |
| 20260505001356 | 19 | 170 | 4.8 | 8.0 | 0.00 | 0.00 | 0.00 | 42 | 1006.3 |
| 20260505000853 | 19 | 163 | 3.2 | 3.2 | 0.00 | 0.00 | 0.00 | 42 | 1006.3 |
| 20260505000351 | 20 | 160 | 0.0 | 1.6 | 0.00 | 0.00 | 0.00 | 42 | 1006.4 |
| 20260504235847 | 20 | 175 | 9.7 | 14.5 | 0.00 | 0.00 | 0.00 | 41 | 1006.4 |
| 20260504235344 | 20 | 151 | 9.7 | 12.9 | 0.00 | 0.00 | 0.00 | 41 | 1006.4 |
| 20260504234840 | 20 | 168 | 3.2 | 4.8 | 0.00 | 0.00 | 0.00 | 41 | 1006.0 |
| 20260504234338 | 20 | 173 | 8.0 | 11.3 | 0.00 | 0.00 | 0.00 | 40 | 1006.3 |
| 20260504233835 | 20 | 147 | 3.2 | 3.2 | 0.00 | 0.00 | 0.00 | 41 | 1005.9 |
| 20260504233330 | 20 | 159 | 3.2 | 3.2 | 0.00 | 0.00 | 0.00 | 41 | 1005.8 |
| 20260504232827 | 20 | 144 | 8.0 | 9.7 | 0.00 | 0.00 | 0.00 | 39 | 1005.9 |
| 20260504232324 | 20 | 145 | 6.4 | 9.7 | 0.00 | 0.00 | 0.00 | 40 | 1005.8 |
| 20260504231821 | 20 | 174 | 8.0 | 9.7 | 0.00 | 0.00 | 0.00 | 39 | 1006.0 |
| 20260504231318 | 21 | 184 | 6.4 | 8.0 | 0.00 | 0.00 | 0.00 | 38 | 1005.8 |
| 20260504230814 | 21 | 178 | 11.3 | 12.9 | 0.00 | 0.00 | 0.00 | 38 | 1005.7 |
| 20260504230312 | 21 | 169 | 4.8 | 8.0 | 0.00 | 0.00 | 0.00 | 37 | 1005.9 |
| 20260504225811 | 21 | 173 | 9.7 | 14.5 | 0.00 | 0.00 | 0.00 | 36 | 1005.9 |
| 20260504225306 | 22 | 243 | 4.8 | 9.7 | 0.00 | 0.00 | 0.00 | 34 | 1005.9 |
| 20260504224804 | 22 | 142 | 3.2 | 4.8 | 0.00 | 0.00 | 0.00 | 32 | 1005.7 |
| 20260504224301 | 22 | 153 | 9.7 | 12.9 | 0.00 | 0.00 | 0.00 | 32 | 1005.7 |
| 20260504223757 | 22 | 185 | 1.6 | 1.6 | 0.00 | 0.00 | 0.00 | 33 | 1005.7 |
| 20260504223253 | 22 | 235 | 8.0 | 11.3 | 0.00 | 0.00 | 0.00 | 31 | 1006.0 |
| 20260504222750 | 22 | 207 | 1.6 | 3.2 | 0.00 | 0.00 | 0.00 | 32 | 1006.0 |
| 20260504222246 | 22 | 228 | 4.8 | 8.0 | 0.00 | 0.00 | 0.00 | 32 | 1005.9 |
| 20260504221744 | 22 | 186 | 3.2 | 3.2 | 0.00 | 0.00 | 0.00 | 33 | 1005.9 |
| 20260504221241 | 22 | 147 | 3.2 | 4.8 | 0.00 | 0.00 | 0.00 | 34 | 1005.7 |
| 20260504220738 | 22 | 177 | 1.6 | 3.2 | 0.00 | 0.00 | 0.00 | 32 | 1005.8 |
| 20260504220235 | 22 | 210 | 3.2 | 3.2 | 0.00 | 0.00 | 0.00 | 32 | 1005.9 |
| 20260504215732 | 22 | 203 | 4.8 | 4.8 | 0.00 | 0.00 | 0.00 | 33 | 1005.9 |
| 20260504215229 | 22 | 111 | 17.7 | 20.9 | 0.00 | 0.00 | 0.00 | 33 | 1005.8 |
| 20260504214725 | 22 | 189 | 3.2 | 3.2 | 0.00 | 0.00 | 0.00 | 34 | 1005.9 |
| 20260504214221 | 22 | 128 | 4.8 | 8.0 | 0.00 | 0.00 | 0.00 | 33 | 1005.8 |
| 20260504213718 | 22 | 218 | 9.7 | 12.9 | 0.00 | 0.00 | 0.00 | 33 | 1006.0 |
| 20260504213215 | 22 | 143 | 6.4 | 14.5 | 0.00 | 0.00 | 0.00 | 35 | 1006.0 |
| 20260504212712 | 21 | 213 | 6.4 | 8.0 | 0.00 | 0.00 | 0.00 | 33 | 1006.0 |
| 20260504212208 | 21 | 245 | 3.2 | 3.2 | 0.00 | 0.00 | 0.00 | 37 | 1006.0 |
| 20260504211706 | 21 | 186 | 8.0 | 9.7 | 0.00 | 0.00 | 0.00 | 35 | 1005.8 |
| 20260504211201 | 21 | 248 | 8.0 | 9.7 | 0.00 | 0.00 | 0.00 | 36 | 1006.1 |
| 20260504210654 | 21 | 205 | 6.4 | 8.0 | 0.00 | 0.00 | 0.00 | 35 | 1006.1 |
| 20260504210150 | 22 | 215 | 6.4 | 9.7 | 0.00 | 0.00 | 0.00 | 35 | 1006.2 |
| 20260504205648 | 22 | 193 | 6.4 | 8.0 | 0.00 | 0.00 | 0.00 | 35 | 1006.2 |
| 20260504205145 | 21 | 203 | 6.4 | 8.0 | 0.00 | 0.00 | 0.00 | 36 | 1006.2 |
| 20260504204643 | 21 | 246 | 11.3 | 12.9 | 0.00 | 0.00 | 0.00 | 35 | 1006.2 |
| 20260504204142 | 21 | 210 | 6.4 | 9.7 | 0.00 | 0.00 | 0.00 | 37 | 1006.6 |
| 20260504203640 | 21 | 199 | 9.7 | 12.9 | 0.00 | 0.00 | 0.00 | 38 | 1006.4 |
| 20260504203138 | 21 | 222 | 11.3 | 17.7 | 0.00 | 0.00 | 0.00 | 35 | 1006.4 |
| 20260504202637 | 21 | 225 | 8.0 | 11.3 | 0.00 | 0.00 | 0.00 | 35 | 1006.7 |
| 20260504202135 | 21 | 208 | 4.8 | 4.8 | 0.00 | 0.00 | 0.00 | 37 | 1006.8 |
| 20260504201631 | 21 | 174 | 6.4 | 11.3 | 0.00 | 0.00 | 0.00 | 36 | 1006.7 |
| 20260504201129 | 21 | 178 | 8.0 | 9.7 | 0.00 | 0.00 | 0.00 | 36 | 1006.8 |
| 20260504200626 | 22 | 249 | 3.2 | 4.8 | 0.00 | 0.00 | 0.00 | 36 | 1006.7 |
| 20260504200123 | 22 | 232 | 4.8 | 4.8 | 0.00 | 0.00 | 0.00 | 35 | 1006.9 |
| 20260504195618 | 22 | 240 | 12.9 | 22.5 | 0.00 | 0.00 | 0.00 | 34 | 1006.8 |
| 20260504195115 | 22 | 148 | 3.2 | 4.8 | 0.00 | 0.00 | 0.00 | 36 | 1007.0 |
| 20260504194612 | 22 | 208 | 1.6 | 1.6 | 0.00 | 0.00 | 0.00 | 37 | 1007.1 |
| 20260504194108 | 21 | 206 | 6.4 | 9.7 | 0.00 | 0.00 | 0.00 | 37 | 1007.1 |
| 20260504193604 | 21 | 231 | 6.4 | 9.7 | 0.00 | 0.00 | 0.00 | 37 | 1007.1 |
| 20260504193103 | 21 | 228 | 4.8 | 8.0 | 0.00 | 0.00 | 0.00 | 39 | 1007.3 |
| 20260504192601 | 21 | 214 | 6.4 | 8.0 | 0.00 | 0.00 | 0.00 | 39 | 1007.2 |
| 20260504192058 | 22 | 254 | 9.7 | 12.9 | 0.00 | 0.00 | 0.00 | 35 | 1007.4 |
| 20260504191556 | 22 | 252 | 8.0 | 9.7 | 0.00 | 0.00 | 0.00 | 36 | 1007.3 |
| 20260504191052 | 21 | 87 | 4.8 | 4.8 | 0.00 | 0.00 | 0.00 | 37 | 1007.3 |
| 20260504190549 | 21 | 224 | 6.4 | 8.0 | 0.00 | 0.00 | 0.00 | 38 | 1007.4 |
| 20260504190045 | 21 | 216 | 11.3 | 16.1 | 0.00 | 0.00 | 0.00 | 37 | 1007.5 |
| 20260504185542 | 21 | 216 | 12.9 | 14.5 | 0.00 | 0.00 | 0.00 | 39 | 1007.6 |
| 20260504185038 | 21 | 215 | 8.0 | 11.3 | 0.00 | 0.00 | 0.00 | 38 | 1007.5 |
| 20260504184534 | 21 | 200 | 8.0 | 9.7 | 0.00 | 0.00 | 0.00 | 39 | 1007.6 |
| 20260504184029 | 21 | 227 | 6.4 | 11.3 | 0.00 | 0.00 | 0.00 | 39 | 1007.6 |
| 20260504183527 | 21 | 187 | 11.3 | 16.1 | 0.00 | 0.00 | 0.00 | 40 | 1007.6 |
| 20260504183025 | 21 | 225 | 8.0 | 11.3 | 0.00 | 0.00 | 0.00 | 39 | 1007.6 |
| 20260504182521 | 20 | 154 | 9.7 | 12.9 | 0.00 | 0.00 | 0.00 | 40 | 1007.8 |
| 20260504182019 | 20 | 231 | 8.0 | 9.7 | 0.00 | 0.00 | 0.00 | 39 | 1008.0 |
| 20260504181516 | 20 | 186 | 1.6 | 1.6 | 0.00 | 0.00 | 0.00 | 43 | 1007.8 |
| 20260504181014 | 20 | 177 | 3.2 | 8.0 | 0.00 | 0.00 | 0.00 | 41 | 1007.7 |
| 20260504180513 | 20 | 210 | 4.8 | 8.0 | 0.00 | 0.00 | 0.00 | 40 | 1007.8 |
| 20260504180011 | 20 | 288 | 4.8 | 8.0 | 0.00 | 0.00 | 0.00 | 41 | 1007.9 |
| 20260504175508 | 20 | 231 | 4.8 | 9.7 | 0.00 | 0.00 | 0.00 | 39 | 1008.2 |
| 20260504175005 | 20 | 181 | 14.5 | 17.7 | 0.00 | 0.00 | 0.00 | 40 | 1008.1 |
| 20260504174503 | 21 | 181 | 4.8 | 4.8 | 0.00 | 0.00 | 0.00 | 39 | 1008.0 |
| 20260504174000 | 20 | 165 | 6.4 | 8.0 | 0.00 | 0.00 | 0.00 | 40 | 1008.0 |